Regional Weather Roundup
Issued by NWS

Home | Current Version | Previous Version | Text Only | Print | Product List | Glossary Off
Versions: 1 2 3 4 5 6 7 8 9 10 11 12 13 14 15 16 17 18 19 20 21 22 23 24 25 26 27 28 29 30 31 32 33 34 35 36 37 38 39 40 41 42 43 44 45 46 47 48 49 50

000
ASUS43 KFSD 291402
RWRSD

WEATHER ROUNDUP FOR SOUTH DAKOTA
NATIONAL WEATHER SERVICE SIOUX FALLS SD
900 AM CDT FRI JUL 29 2016

NOTE: "FAIR" INDICATES FEW OR NO CLOUDS BELOW 12,000 FEET WITH NO
SIGNIFICANT WEATHER AND/OR OBSTRUCTIONS TO VISIBILITY.


SDZ001>005-009-010-012>017-291500-
NORTHWEST AND NORTH CENTRAL SOUTH DAKOTA

CITY           SKY/WX    TMP DP  RH WIND       PRES   REMARKS
BUFFALO          N/A     61  59  93 S7        30.06S
FAITH            N/A     65  60  84 NE3       30.11S
MOBRIDGE       CLOUDY    71  60  68 S3        30.06S
$$

SDZ012>016-024>037-041>051-057-063-072>074-291500-
SOUTHWEST AND SOUTH CENTRAL SOUTH DAKOTA

CITY           SKY/WX    TMP DP  RH WIND       PRES   REMARKS
RAPID CTY ARPT SUNNY     62  58  86 CALM      30.12S
PIERRE         CLOUDY    68  62  81 VRB3      30.08S
CUSTER         SUNNY     60  54  80 VRB3      30.22S
PHILIP         FOG       59  59 100 CALM      30.11R VSB 1/4
PINE RIDGE     FOG       59  59 100 CALM      30.14R VSB 1/4
WINNER         PTSUNNY   67  62  84 N3        30.11S
$$

SDZ004>011-016>023-039-040-291500-
NORTHEAST SOUTH DAKOTA

CITY           SKY/WX    TMP DP  RH WIND       PRES   REMARKS
ABERDEEN       MOSUNNY   70  60  70 CALM      30.09S
WATERTOWN      MOSUNNY   70  56  61 E5        30.10S
BROOKINGS      SUNNY     67  58  72 N6        30.10S
SISSETON         N/A     68  62  81 N3        30.08S
$$

SDZ017-020-022-023-036>040-048>070-291500-
SOUTHEAST SOUTH DAKOTA

CITY           SKY/WX    TMP DP  RH WIND       PRES   REMARKS
SIOUX FALLS    MOSUNNY   67  58  72 NW3       30.10R
HURON          SUNNY     69  58  67 E5        30.10R
CHAMBERLAIN    PTSUNNY   68  67  94 CALM      30.11R
MITCHELL       SUNNY     68  59  73 E3        30.11R
YANKTON        MOSUNNY   66  57  72 NE3       30.09R
$$

ABBREVIATIONS USED IN REMARKS
   TC - TEMPERATURE IN CELSIUS
  WCI - WIND CHILL INDEX
   HX - HEAT INDEX
  VSB - VISIBILITY





USA.gov is the U.S. government's official web portal to all federal, state and local government web resources and services.